Back to catalog

SL-16 DEB

AliveLEO
NORAD 22600·DEBRIS·🇷🇺 Russia

Launched Mar 26, 1993 from Baikonur Cosmodrome

Loading…

Next Passes (next 24 hours)

TLE

FreshSource: Space-Track

Epoch: Sep 14, 2026, 14:20 UTC

1 22600U 93016J   26257.59745547  .00000011  00000-0  45806-4 0  9996
2 22600  70.9168 348.2865 0156733  84.7217 338.9372 13.82516460688017

Track SL-16 DEB in real time with AllMySat

Download on the App Store